VIV1913 MMGL-MMMX

Flight info

Callsign VIV1913
Flight time N/A
Altitude 37000
Route EMIRI1B EMIRI UT119 ESPOS ESPOS3A
Aircraft A320/M-SDE3FGHIRWY/LB1

Departure

Time 2026-05-05 03:49
Airport Guadalajara International Airport (MMGL)

Arrival

Time N/A
Airport Mexico City Benito Juárez International Airport (MMMX)
Time Latitude Longitude Altitude Speed Heading
2026-05-05 03:21 20.52498 -103.30302 5017 ft 0 kts 19°
2026-05-05 03:38 20.52496 -103.30303 5017 ft 2 kts 19°
2026-05-05 03:38 20.52480 -103.30309 5016 ft 2 kts 21°
2026-05-05 03:39 20.52465 -103.30315 5014 ft 2 kts 25°
2026-05-05 03:39 20.52450 -103.30323 5019 ft 2 kts 39°
2026-05-05 03:39 20.52441 -103.30337 5018 ft 2 kts 109°
2026-05-05 03:39 20.52444 -103.30345 5017 ft 0 kts 110°
2026-05-05 03:40 20.52444 -103.30344 5017 ft 0 kts 110°
2026-05-05 03:40 20.52443 -103.30342 5017 ft 0 kts 110°
2026-05-05 03:44 20.52442 -103.30338 5019 ft 4 kts 110°
2026-05-05 03:44 20.52424 -103.30284 5018 ft 11 kts 109°
2026-05-05 03:44 20.52416 -103.30258 5019 ft 5 kts 109°
2026-05-05 03:44 20.52380 -103.30223 5019 ft 10 kts 173°
2026-05-05 03:45 20.52312 -103.30244 5019 ft 9 kts 199°
2026-05-05 03:45 20.52230 -103.30273 5018 ft 15 kts 196°
2026-05-05 03:45 20.52177 -103.30219 5017 ft 12 kts 107°
2026-05-05 03:45 20.52134 -103.30103 5016 ft 18 kts 108°
2026-05-05 03:46 20.52110 -103.30027 5019 ft 11 kts 109°
2026-05-05 03:46 20.52084 -103.29948 5018 ft 12 kts 109°
2026-05-05 03:46 20.52046 -103.29867 5019 ft 15 kts 124°
2026-05-05 03:46 20.51967 -103.29753 5019 ft 22 kts 127°
2026-05-05 03:47 20.51871 -103.29611 5016 ft 24 kts 126°
2026-05-05 03:47 20.51771 -103.29466 5020 ft 24 kts 126°
2026-05-05 03:47 20.51730 -103.29406 5020 ft 15 kts 126°
2026-05-05 03:47 20.51667 -103.29315 5020 ft 15 kts 126°
2026-05-05 03:48 20.51604 -103.29222 5016 ft 16 kts 126°
2026-05-05 03:48 20.51531 -103.29221 5019 ft 11 kts 200°
2026-05-05 03:48 20.51430 -103.29285 5017 ft 22 kts 243°
2026-05-05 03:48 20.51473 -103.29429 5020 ft 24 kts 295°
2026-05-05 03:49 20.51634 -103.29813 5021 ft 89 kts 294°
2026-05-05 03:49 20.51964 -103.30594 5021 ft 140 kts 294°
2026-05-05 03:49 20.52424 -103.31663 5193 ft 168 kts 295°
2026-05-05 03:49 20.52885 -103.32741 6115 ft 155 kts 287°
2026-05-05 03:50 20.53318 -103.33791 6533 ft 158 kts 294°
2026-05-05 03:50 20.53813 -103.34914 6675 ft 176 kts 294°
2026-05-05 03:50 20.54356 -103.36162 6789 ft 195 kts 292°
2026-05-05 03:50 20.54950 -103.37555 6918 ft 219 kts 292°
2026-05-05 03:51 20.55600 -103.39093 7263 ft 233 kts 292°
2026-05-05 03:51 20.56214 -103.40564 7749 ft 238 kts 292°
2026-05-05 03:51 20.56885 -103.42190 8380 ft 242 kts 293°
2026-05-05 03:51 20.57565 -103.43854 9025 ft 246 kts 291°
2026-05-05 03:52 20.58190 -103.45392 9557 ft 252 kts 291°
2026-05-05 03:52 20.58776 -103.47147 10100 ft 257 kts 276°
2026-05-05 03:52 20.58522 -103.49051 10291 ft 274 kts 242°
2026-05-05 03:52 20.57193 -103.50577 10618 ft 288 kts 209°
2026-05-05 03:53 20.55498 -103.51081 11075 ft 295 kts 180°
2026-05-05 03:53 20.53430 -103.50699 11656 ft 300 kts 168°
2026-05-05 03:53 20.51393 -103.50551 12181 ft 303 kts 189°
2026-05-05 03:53 20.49347 -103.51179 12749 ft 306 kts 203°
2026-05-05 03:54 20.47430 -103.52194 13302 ft 310 kts 210°
2026-05-05 03:54 20.45544 -103.53378 13847 ft 315 kts 211°
2026-05-05 03:54 20.43660 -103.54594 14323 ft 318 kts 211°
2026-05-05 03:54 20.41742 -103.55760 14813 ft 321 kts 203°
2026-05-05 03:55 20.39562 -103.56350 15049 ft 332 kts 179°
2026-05-05 03:55 20.37266 -103.55875 15111 ft 346 kts 155°
2026-05-05 03:55 20.35291 -103.54351 15230 ft 360 kts 131°